La Veta Pass, CO

7:26 PM MDT on July 23, 2017 (GMT -0600)
La Veta Pass

Weather History for KVTP - August, 2013

Change the Weather History Date:

Wednesday, August 21, 2013

  Actual Average (KTAD) Record (KTAD)
Temperature  
Mean Temperature 63 °F -  
Max Temperature 75 °F 85 °F 96 °F (2003)
Min Temperature 51 °F 57 °F 44 °F (1964)
Degree Days  
Heating Degree Days 2    
Growing Degree Days 13 (Base 50)    
Moisture  
Dew Point 42 °F    
Average Humidity 56    
Maximum Humidity 88    
Minimum Humidity 29    
Precipitation  
Precipitation 0.00 in - - ()
Sea Level Pressure  
Sea Level Pressure 30.54 in    
Wind  
Wind Speed 7 mph (SW)    
Max Wind Speed 15 mph    
Max Gust Speed 25 mph    
Visibility 10 miles    
Events Rain , Thunderstorm    
Averages and records for this station are not official NWS values.
T = Trace of Precipitation, MM = Missing Value Source: NWS Daily Summary

Daily Weather History Graph

Daily Weather History Graph

Search for Another Location

Airport or City:

Trip Planner

Search our weather history database for the weather conditions in past years. The results will help you decide how hot, cold, wet, or windy it might be!

Date:

Astronomy

Aug. 21, 2013 Rise Set
Actual Time 6:22 AM MDT 7:44 PM MDT
Civil Twilight 5:54 AM MDT 8:12 PM MDT
Nautical Twilight 5:21 AM MDT 8:44 PM MDT
Astronomical Twilight 4:47 AM MDT 9:19 PM MDT
Moon 7:57 PM MDT (8/21) 7:03 AM MDT (8/21)
Length of Visible Light 14h 17m
Length of Day
13h 22m
Full, 99% of the Moon is Illuminated
Aug 21
Full
Aug 28
Last Quarter
Sep 5
New
Sep 12
First Quarter
Sep 19
Full

Hourly Weather History & Observations

Time (MDT) Temp. Dew Point Humidity Pressure Visibility Wind Dir Wind Speed Gust Speed Precip Events Conditions
12:15 AM 55.4 °F 37.4 °F 51% 30.51 in 10.0 mi SW 6.9 mph 16.1 mph N/A   Clear
12:34 AM 55.4 °F 37.4 °F 51% 30.51 in 10.0 mi WSW 6.9 mph - N/A   Clear
12:55 AM 55.4 °F 39.2 °F 54% 30.51 in 10.0 mi SW 6.9 mph - N/A   Clear
1:15 AM 53.6 °F 41.0 °F 62% 30.50 in 10.0 mi SW 10.4 mph 17.3 mph N/A   Clear
1:35 AM 55.4 °F 41.0 °F 58% 30.50 in 10.0 mi SW 8.1 mph 18.4 mph N/A   Clear
1:55 AM 53.6 °F 41.0 °F 62% 30.50 in 10.0 mi SW 11.5 mph 18.4 mph N/A   Clear
2:14 AM 53.6 °F 41.0 °F 62% 30.50 in 10.0 mi SW 10.4 mph 19.6 mph N/A   Clear
2:35 AM 53.6 °F 42.8 °F 67% 30.50 in 10.0 mi SW 12.7 mph 19.6 mph N/A   Clear
2:55 AM 53.6 °F 42.8 °F 67% 30.50 in 10.0 mi SW 11.5 mph 18.4 mph N/A   Clear
3:15 AM 53.6 °F 42.8 °F 67% 30.49 in 10.0 mi SW 15.0 mph 25.3 mph N/A   Clear
3:35 AM 53.6 °F 42.8 °F 67% 30.50 in 10.0 mi SW 9.2 mph 25.3 mph N/A   Clear
3:55 AM 53.6 °F 42.8 °F 67% 30.49 in 10.0 mi SW 15.0 mph 25.3 mph N/A   Clear
4:15 AM 53.6 °F 42.8 °F 67% 30.50 in 10.0 mi SW 13.8 mph 24.2 mph N/A   Clear
4:34 AM 53.6 °F 42.8 °F 67% 30.50 in 10.0 mi SW 10.4 mph 21.9 mph N/A   Clear
4:55 AM 53.6 °F 44.6 °F 72% 30.50 in 10.0 mi SW 8.1 mph 19.6 mph N/A   Clear
5:15 AM 53.6 °F 42.8 °F 67% 30.50 in 10.0 mi SW 6.9 mph - N/A   Clear
5:35 AM 51.8 °F 42.8 °F 71% 30.50 in 10.0 mi SW 5.8 mph - N/A   Clear
5:55 AM 51.8 °F 42.8 °F 71% 30.51 in 10.0 mi SW 5.8 mph - N/A   Clear
6:14 AM 51.8 °F 42.8 °F 71% 30.51 in 10.0 mi WSW 5.8 mph - N/A   Clear
6:35 AM 51.8 °F 42.8 °F 71% 30.51 in 10.0 mi WSW 6.9 mph - N/A   Clear
6:54 AM 51.8 °F 42.8 °F 71% 30.52 in 10.0 mi West 6.9 mph - N/A   Clear
7:15 AM 51.8 °F 42.8 °F 71% 30.52 in 10.0 mi WSW 5.8 mph - N/A   Clear
7:35 AM 51.8 °F 42.8 °F 71% 30.52 in 10.0 mi WSW 5.8 mph - N/A   Clear
7:54 AM 53.6 °F 44.6 °F 72% 30.54 in 10.0 mi WSW 5.8 mph - N/A   Clear
8:15 AM 53.6 °F 44.6 °F 72% 30.54 in 10.0 mi SW 5.8 mph - N/A   Clear
8:34 AM 55.4 °F 44.6 °F 67% 30.54 in 10.0 mi WSW 5.8 mph - N/A   Clear
8:55 AM 57.2 °F 44.6 °F 63% 30.55 in 10.0 mi WSW 4.6 mph - N/A   Clear
9:14 AM 59.0 °F 46.4 °F 63% 30.56 in 10.0 mi West 5.8 mph - N/A   Clear
9:35 AM 60.8 °F 46.4 °F 59% 30.56 in 10.0 mi West 5.8 mph - N/A   Clear
9:55 AM 62.6 °F 46.4 °F 55% 30.56 in 10.0 mi WSW 5.8 mph - N/A   Clear
10:15 AM 64.4 °F 46.4 °F 52% 30.56 in 10.0 mi WSW 4.6 mph - N/A   Clear
10:35 AM 64.4 °F 46.4 °F 52% 30.56 in 10.0 mi West 4.6 mph - N/A   Clear
10:54 AM 64.4 °F 44.6 °F 49% 30.56 in 10.0 mi West 5.8 mph - N/A   Clear
11:15 AM 66.2 °F 44.6 °F 46% 30.56 in 10.0 mi West 4.6 mph - N/A   Clear
11:35 AM 68.0 °F 44.6 °F 43% 30.56 in 10.0 mi WSW 3.5 mph - N/A   Clear
11:55 AM 68.0 °F 42.8 °F 40% 30.56 in 10.0 mi SE 3.5 mph - N/A   Clear
12:14 PM 69.8 °F 41.0 °F 35% 30.56 in 10.0 mi Calm Calm - N/A   Clear
12:35 PM 64.4 °F 41.0 °F 42% 30.55 in 10.0 mi SSW 4.6 mph - N/A   Scattered Clouds
12:55 PM 68.0 °F 39.2 °F 35% 30.55 in 10.0 mi SE 3.5 mph - N/A Thunderstorm Overcast
1:15 PM 69.8 °F 41.0 °F 35% 30.54 in 10.0 mi SSW 3.5 mph - N/A   Overcast
1:35 PM 69.8 °F 41.0 °F 35% 30.54 in 10.0 mi SSW 3.5 mph - N/A Thunderstorm Mostly Cloudy
1:55 PM 69.8 °F 41.0 °F 35% 30.54 in 10.0 mi NE 4.6 mph - N/A Thunderstorm Thunderstorm
2:15 PM 69.8 °F 41.0 °F 35% 30.54 in 10.0 mi ENE 5.8 mph - N/A Thunderstorm Thunderstorm
2:34 PM 75.2 °F 42.8 °F 31% 30.54 in 10.0 mi ENE 10.4 mph 16.1 mph N/A Thunderstorm Scattered Clouds
2:55 PM 75.2 °F 42.8 °F 31% 30.53 in 10.0 mi East 8.1 mph - N/A Thunderstorm Scattered Clouds
3:14 PM 75.2 °F 41.0 °F 29% 30.52 in 10.0 mi ENE 6.9 mph - N/A Thunderstorm Thunderstorm
3:34 PM 71.6 °F 37.4 °F 29% 30.52 in 10.0 mi East 11.5 mph 17.3 mph N/A Thunderstorm Thunderstorm
3:55 PM 68.0 °F 37.4 °F 33% 30.52 in 10.0 mi East 9.2 mph 17.3 mph N/A Thunderstorm Thunderstorm
4:15 PM 66.2 °F 37.4 °F 35% 30.52 in 10.0 mi East 8.1 mph 17.3 mph N/A Thunderstorm Thunderstorm
4:35 PM 64.4 °F 37.4 °F 37% 30.52 in 10.0 mi SSE 10.4 mph - N/A Thunderstorm Thunderstorm
4:55 PM 64.4 °F 37.4 °F 37% 30.52 in 10.0 mi South 3.5 mph - N/A Thunderstorm Mostly Cloudy
5:15 PM 64.4 °F 37.4 °F 37% 30.53 in 10.0 mi SE 3.5 mph - N/A Thunderstorm Mostly Cloudy
5:35 PM 62.6 °F 41.0 °F 45% 30.52 in 10.0 mi North 6.9 mph - N/A Thunderstorm Thunderstorm
5:54 PM 62.6 °F 41.0 °F 45% 30.52 in 10.0 mi Calm Calm - N/A Thunderstorm Thunderstorm
6:15 PM 60.8 °F 41.0 °F 48% 30.54 in 10.0 mi North 3.5 mph - N/A Thunderstorm Thunderstorm
6:34 PM 60.8 °F 39.2 °F 45% 30.54 in 10.0 mi ENE 9.2 mph - N/A   Clear
6:54 PM 59.0 °F 41.0 °F 51% 30.53 in 10.0 mi ENE 10.4 mph 18.4 mph N/A Thunderstorm Clear
7:15 PM 59.0 °F 42.8 °F 55% 30.54 in 10.0 mi ENE 11.5 mph 18.4 mph N/A Thunderstorm Clear
7:34 PM 57.2 °F 41.0 °F 55% 30.54 in 10.0 mi ENE 5.8 mph - N/A Thunderstorm Mostly Cloudy
7:55 PM 55.4 °F 41.0 °F 58% 30.56 in 10.0 mi SSW 5.8 mph - N/A Thunderstorm Thunderstorm
8:14 PM 55.4 °F 41.0 °F 58% 30.57 in 10.0 mi Calm Calm - N/A Thunderstorm Overcast
8:35 PM 53.6 °F 44.6 °F 72% 30.58 in 10.0 mi Calm Calm - N/A Rain Light Rain
8:55 PM 51.8 °F 46.4 °F 82% 30.58 in 7.0 mi NNE 4.6 mph - N/A Rain Light Rain
9:15 PM 51.8 °F 48.2 °F 88% 30.58 in 10.0 mi ENE 6.9 mph - N/A Thunderstorm Unknown
9:35 PM 53.6 °F 48.2 °F 82% 30.58 in 10.0 mi East 6.9 mph - N/A   Overcast
9:55 PM 51.8 °F 44.6 °F 76% 30.58 in 10.0 mi East 3.5 mph - N/A   Overcast
10:15 PM 53.6 °F 44.6 °F 72% 30.58 in 10.0 mi SSW 4.6 mph - N/A   Overcast
10:34 PM 53.6 °F 41.0 °F 62% 30.58 in 10.0 mi Calm Calm - N/A   Overcast
10:55 PM 53.6 °F 42.8 °F 67% 30.58 in 10.0 mi Calm Calm - N/A   Drizzle
11:15 PM 57.2 °F 41.0 °F 55% 30.58 in 10.0 mi Calm Calm - N/A   Overcast
11:35 PM 53.6 °F 42.8 °F 67% 30.58 in 10.0 mi SW 3.5 mph - N/A   Overcast
11:55 PM 53.6 °F 44.6 °F 72% 30.58 in 10.0 mi SW 9.2 mph - N/A   Overcast